| time (UTC) | temp F | wind direction | speed knots | gust knots | rain 1hr in | rain 24hr in | rain mn in | humidity % | barometer mb |
| 20260831033613 | 63 | 191 | 1.7 | 7.0 | 0.00 | 0.25 | 0.25 | 71 | 1016.5 |
| 20260831032713 | 63 | 193 | 2.6 | 11.3 | 0.00 | 0.25 | 0.25 | 75 | 1016.5 |
| 20260831031813 | 62 | 203 | 3.5 | 11.3 | 0.00 | 0.25 | 0.25 | 78 | 1016.5 |
| 20260831030913 | 62 | 209 | 0.9 | 6.1 | 0.00 | 0.25 | 0.25 | 82 | 1016.5 |
| 20260831030013 | 61 | 212 | 0.9 | 5.2 | 0.00 | 0.25 | 0.25 | 82 | 1016.5 |
| 20260831025434 | 62 | 90 | 0.0 | 1.7 | 0.00 | 0.25 | 0.25 | 82 | 1016.5 |
| 20260831024513 | 62 | 0 | 0.0 | 0.0 | 0.00 | 0.25 | 0.25 | 82 | 1016.5 |
| 20260831023613 | 62 | 0 | 0.0 | 0.0 | 0.00 | 0.25 | 0.25 | 81 | 1016.5 |
| 20260831022713 | 63 | 215 | 0.0 | 4.3 | 0.00 | 0.25 | 0.25 | 79 | 1016.5 |
| 20260831021813 | 64 | 229 | 0.0 | 4.3 | 0.00 | 0.26 | 0.25 | 76 | 1016.5 |
| 20260831020934 | 64 | 234 | 0.9 | 6.1 | 0.00 | 0.26 | 0.25 | 74 | 1016.5 |
| 20260831020013 | 64 | 232 | 0.0 | 5.2 | 0.00 | 0.26 | 0.25 | 76 | 1016.5 |
| 20260831015413 | 63 | 230 | 1.7 | 9.6 | 0.00 | 0.26 | 0.25 | 76 | 1016.5 |
| 20260831014534 | 63 | 225 | 2.6 | 10.4 | 0.00 | 0.26 | 0.25 | 77 | 1016.5 |
| 20260831013613 | 62 | 240 | 0.9 | 8.7 | 0.01 | 0.26 | 0.25 | 78 | 1016.5 |
| 20260831012713 | 62 | 233 | 0.9 | 6.1 | 0.01 | 0.26 | 0.25 | 80 | 1016.5 |
| 20260831011834 | 61 | 235 | 0.9 | 7.8 | 0.02 | 0.26 | 0.25 | 81 | 1016.5 |
| 20260831010913 | 61 | 226 | 0.0 | 4.3 | 0.05 | 0.26 | 0.25 | 83 | 1016.5 |
| 20260831010013 | 61 | 187 | 0.9 | 4.3 | 0.10 | 0.26 | 0.25 | 84 | 1016.5 |
| 20260831005413 | 61 | 181 | 0.0 | 4.3 | 0.13 | 0.26 | 0.25 | 84 | 1016.5 |
| 20260831004513 | 61 | 180 | 0.0 | 1.7 | 0.18 | 0.26 | 0.25 | 83 | 1016.5 |
| 20260831003613 | 61 | 278 | 0.0 | 0.9 | 0.19 | 0.25 | 0.24 | 83 | 1016.5 |
| 20260831002713 | 61 | 9 | 0.0 | 2.6 | 0.19 | 0.25 | 0.24 | 81 | 1016.5 |
| 20260831001813 | 62 | 291 | 0.9 | 10.4 | 0.18 | 0.24 | 0.23 | 79 | 1016.5 |
| 20260831000913 | 63 | 261 | 4.3 | 18.2 | 0.15 | 0.21 | 0.20 | 76 | 1016.5 |
| 20260831000013 | 66 | 293 | 7.8 | 21.7 | 0.10 | 0.16 | 0.15 | 68 | 1016.5 |
| 20260830235413 | 71 | 301 | 3.5 | 20.0 | 0.07 | 0.13 | 0.13 | 59 | 1016.5 |
| 20260830234513 | 75 | 0 | 0.0 | 0.0 | 0.02 | 0.08 | 0.07 | 60 | 1016.5 |
| 20260830233613 | 76 | 0 | 0.0 | 0.0 | 0.00 | 0.06 | 0.05 | 47 | 1016.5 |
| 20260830232713 | 76 | 0 | 0.0 | 0.0 | 0.00 | 0.06 | 0.05 | 44 | 1016.5 |
| 20260830231813 | 76 | 196 | 0.9 | 5.2 | 0.00 | 0.06 | 0.05 | 43 | 1016.5 |
| 20260830230913 | 76 | 197 | 4.3 | 7.8 | 0.00 | 0.06 | 0.05 | 42 | 1016.5 |
| 20260830230013 | 77 | 199 | 2.6 | 7.0 | 0.00 | 0.06 | 0.05 | 43 | 1016.5 |
| 20260830225413 | 77 | 200 | 2.6 | 7.0 | 0.00 | 0.06 | 0.05 | 42 | 1016.5 |
| 20260830224513 | 78 | 194 | 0.9 | 6.1 | 0.00 | 0.06 | 0.05 | 43 | 1016.5 |
| 20260830223613 | 78 | 192 | 2.6 | 7.8 | 0.00 | 0.06 | 0.05 | 43 | 1016.5 |
| 20260830222713 | 78 | 200 | 0.9 | 6.1 | 0.00 | 0.06 | 0.05 | 42 | 1016.5 |
| 20260830221813 | 78 | 199 | 2.6 | 7.0 | 0.00 | 0.06 | 0.05 | 41 | 1016.5 |
| 20260830220913 | 78 | 77 | 0.9 | 7.0 | 0.00 | 0.06 | 0.05 | 41 | 1016.5 |
| 20260830220013 | 78 | 68 | 2.6 | 7.8 | 0.00 | 0.06 | 0.05 | 40 | 1016.5 |
| 20260830215413 | 78 | 184 | 0.9 | 6.1 | 0.00 | 0.06 | 0.05 | 42 | 1016.5 |
| 20260830214513 | 79 | 128 | 1.7 | 5.2 | 0.00 | 0.06 | 0.05 | 42 | 1016.5 |
| 20260830213613 | 78 | 55 | 1.7 | 9.6 | 0.00 | 0.06 | 0.05 | 44 | 1016.5 |
| 20260830212713 | 78 | 194 | 3.5 | 9.6 | 0.00 | 0.06 | 0.05 | 44 | 1016.5 |
| 20260830211813 | 78 | 103 | 1.7 | 10.4 | 0.00 | 0.06 | 0.05 | 43 | 1016.5 |
| 20260830210913 | 79 | 71 | 2.6 | 10.4 | 0.00 | 0.06 | 0.05 | 43 | 1016.5 |
| 20260830210013 | 80 | 56 | 2.6 | 11.3 | 0.00 | 0.06 | 0.05 | 42 | 1016.5 |
| 20260830205413 | 79 | 66 | 0.9 | 6.1 | 0.00 | 0.06 | 0.05 | 42 | 1016.5 |
| 20260830204513 | 78 | 62 | 3.5 | 10.4 | 0.00 | 0.06 | 0.05 | 41 | 1016.5 |
| 20260830203613 | 78 | 58 | 0.9 | 4.3 | 0.00 | 0.06 | 0.05 | 41 | 1016.5 |
| 20260830202713 | 78 | 57 | 0.9 | 6.1 | 0.00 | 0.06 | 0.05 | 41 | 1016.5 |
| 20260830201813 | 77 | 66 | 2.6 | 8.7 | 0.00 | 0.06 | 0.05 | 42 | 1016.5 |
| 20260830200913 | 77 | 114 | 1.7 | 7.8 | 0.00 | 0.06 | 0.05 | 44 | 1016.5 |
| 20260830200013 | 77 | 68 | 1.7 | 7.8 | 0.00 | 0.06 | 0.05 | 43 | 1016.5 |
| 20260830195413 | 76 | 70 | 1.7 | 7.8 | 0.00 | 0.06 | 0.05 | 43 | 1016.5 |
| 20260830194513 | 76 | 64 | 1.7 | 6.1 | 0.00 | 0.06 | 0.05 | 44 | 1016.5 |
| 20260830193613 | 75 | 75 | 2.6 | 7.8 | 0.00 | 0.06 | 0.05 | 45 | 1016.5 |
| 20260830192713 | 74 | 78 | 1.7 | 7.8 | 0.00 | 0.06 | 0.05 | 48 | 1016.5 |
| 20260830191813 | 74 | 75 | 0.9 | 6.1 | 0.00 | 0.06 | 0.05 | 48 | 1016.5 |
| 20260830190913 | 73 | 75 | 0.0 | 3.5 | 0.00 | 0.06 | 0.05 | 51 | 1016.5 |
| 20260830190013 | 72 | 0 | 0.0 | 1.7 | 0.00 | 0.06 | 0.05 | 53 | 1016.5 |
| 20260830185413 | 71 | 0 | 0.0 | 0.0 | 0.00 | 0.06 | 0.05 | 56 | 1016.5 |
| 20260830184513 | 71 | 0 | 0.0 | 0.0 | 0.00 | 0.06 | 0.05 | 60 | 1016.5 |
| 20260830183634 | 70 | 75 | 0.0 | 3.5 | 0.00 | 0.06 | 0.05 | 60 | 1016.5 |
| 20260830182713 | 68 | 0 | 0.0 | 0.0 | 0.00 | 0.06 | 0.05 | 63 | 1016.5 |
| 20260830181813 | 68 | 75 | 0.0 | 4.3 | 0.00 | 0.06 | 0.05 | 62 | 1016.5 |
| 20260830180934 | 68 | 42 | 0.9 | 4.3 | 0.00 | 0.06 | 0.05 | 66 | 1016.5 |
| 20260830180034 | 67 | 33 | 0.0 | 3.5 | 0.00 | 0.06 | 0.05 | 70 | 1016.5 |
| 20260830175413 | 66 | 0 | 0.0 | 0.9 | 0.00 | 0.06 | 0.05 | 71 | 1016.5 |
| 20260830174534 | 66 | 248 | 0.0 | 0.9 | 0.00 | 0.06 | 0.05 | 72 | 1016.5 |
| 20260830173634 | 66 | 3 | 0.9 | 7.8 | 0.00 | 0.06 | 0.05 | 74 | 1016.5 |
| 20260830172713 | 66 | 12 | 1.7 | 7.0 | 0.00 | 0.06 | 0.05 | 73 | 1016.5 |
| 20260830171834 | 67 | 357 | 0.9 | 6.1 | 0.00 | 0.06 | 0.05 | 71 | 1016.5 |
| 20260830170913 | 68 | 338 | 0.9 | 9.6 | 0.00 | 0.06 | 0.05 | 67 | 1016.5 |
| 20260830170013 | 68 | 351 | 2.6 | 9.6 | 0.00 | 0.06 | 0.05 | 71 | 1016.5 |
| 20260830165413 | 68 | 339 | 3.5 | 9.6 | 0.00 | 0.06 | 0.05 | 69 | 1016.5 |
| 20260830164513 | 68 | 337 | 1.7 | 8.7 | 0.00 | 0.06 | 0.05 | 69 | 1016.5 |
| 20260830163613 | 68 | 355 | 0.9 | 5.2 | 0.00 | 0.06 | 0.05 | 72 | 1016.5 |
| 20260830162713 | 68 | 336 | 0.9 | 7.8 | 0.00 | 0.06 | 0.05 | 72 | 1016.5 |
| 20260830161813 | 68 | 355 | 0.9 | 7.8 | 0.00 | 0.06 | 0.05 | 71 | 1016.5 |
| 20260830160913 | 68 | 338 | 0.9 | 4.3 | 0.00 | 0.06 | 0.05 | 72 | 1016.5 |
| 20260830160013 | 68 | 332 | 0.9 | 4.3 | 0.00 | 0.06 | 0.05 | 71 | 1016.5 |
| 20260830155413 | 68 | 332 | 0.0 | 4.3 | 0.00 | 0.06 | 0.05 | 71 | 1016.5 |
| 20260830154534 | 68 | 331 | 0.0 | 3.5 | 0.00 | 0.06 | 0.05 | 73 | 1016.5 |
| 20260830153613 | 67 | 327 | 0.9 | 4.3 | 0.00 | 0.06 | 0.05 | 74 | 1016.5 |
| 20260830152713 | 67 | 322 | 0.9 | 4.3 | 0.00 | 0.06 | 0.05 | 76 | 1016.5 |
| 20260830151813 | 66 | 303 | 0.9 | 4.3 | 0.00 | 0.06 | 0.05 | 78 | 1016.5 |
| 20260830150913 | 66 | 317 | 0.9 | 8.7 | 0.00 | 0.06 | 0.05 | 78 | 1016.5 |
| 20260830150013 | 66 | 345 | 0.9 | 7.0 | 0.00 | 0.06 | 0.05 | 79 | 1016.5 |
| 20260830145413 | 66 | 350 | 0.9 | 7.0 | 0.00 | 0.06 | 0.05 | 77 | 1016.5 |
| 20260830144513 | 66 | 329 | 0.0 | 1.7 | 0.00 | 0.06 | 0.05 | 75 | 1016.5 |
| 20260830143613 | 66 | 0 | 0.0 | 0.0 | 0.00 | 0.06 | 0.05 | 72 | 1016.5 |
| 20260830142713 | 66 | 0 | 0.0 | 0.0 | 0.00 | 0.06 | 0.05 | 74 | 1016.5 |
| 20260830141813 | 66 | 215 | 0.9 | 5.2 | 0.00 | 0.06 | 0.05 | 71 | 1016.5 |
| 20260830140934 | 65 | 211 | 2.6 | 7.0 | 0.00 | 0.06 | 0.05 | 73 | 1016.5 |
| 20260830140013 | 64 | 209 | 0.0 | 7.0 | 0.00 | 0.06 | 0.05 | 77 | 1016.5 |
| 20260830135413 | 64 | 210 | 0.0 | 5.2 | 0.00 | 0.06 | 0.05 | 78 | 1016.5 |
| 20260830134513 | 63 | 209 | 0.9 | 6.1 | 0.00 | 0.06 | 0.05 | 78 | 1016.5 |
| 20260830133613 | 63 | 211 | 0.0 | 3.5 | 0.00 | 0.06 | 0.05 | 81 | 1016.5 |
| 20260830132713 | 63 | 0 | 0.0 | 0.0 | 0.00 | 0.06 | 0.05 | 80 | 1016.5 |
| 20260830131813 | 63 | 0 | 0.0 | 0.0 | 0.00 | 0.06 | 0.05 | 80 | 1016.5 |
| 20260830130934 | 63 | 195 | 1.7 | 6.1 | 0.00 | 0.06 | 0.05 | 80 | 1016.5 |
| 20260830130034 | 62 | 207 | 1.7 | 7.0 | 0.00 | 0.06 | 0.05 | 83 | 1016.5 |
| 20260830125413 | 61 | 201 | 0.9 | 5.2 | 0.00 | 0.06 | 0.05 | 86 | 1016.5 |
| 20260830124513 | 61 | 0 | 0.0 | 0.0 | 0.00 | 0.06 | 0.05 | 87 | 1016.5 |
| 20260830123613 | 61 | 0 | 0.0 | 0.0 | 0.00 | 0.06 | 0.05 | 87 | 1016.5 |
| 20260830122734 | 61 | 0 | 0.0 | 0.0 | 0.00 | 0.06 | 0.05 | 87 | 1016.5 |
| 20260830121813 | 61 | 0 | 0.0 | 0.0 | 0.01 | 0.06 | 0.05 | 86 | 1016.5 |
| 20260830120934 | 61 | 0 | 0.0 | 0.0 | 0.02 | 0.06 | 0.05 | 85 | 1016.5 |
| 20260830120034 | 62 | 0 | 0.0 | 0.0 | 0.02 | 0.06 | 0.05 | 84 | 1016.5 |
| 20260830115413 | 62 | 0 | 0.0 | 0.0 | 0.02 | 0.06 | 0.05 | 85 | 1016.5 |
| 20260830114513 | 62 | 0 | 0.0 | 0.0 | 0.05 | 0.06 | 0.05 | 84 | 1016.5 |
| 20260830113634 | 63 | 0 | 0.0 | 0.0 | 0.05 | 0.06 | 0.05 | 84 | 1016.5 |
| 20260830112713 | 63 | 0 | 0.0 | 0.0 | 0.05 | 0.06 | 0.05 | 82 | 1016.5 |
| 20260830111813 | 63 | 0 | 0.0 | 0.0 | 0.04 | 0.05 | 0.04 | 81 | 1016.5 |
| 20260830110934 | 64 | 0 | 0.0 | 0.0 | 0.03 | 0.04 | 0.03 | 79 | 1016.5 |
| 20260830110013 | 65 | 0 | 0.0 | 0.0 | 0.03 | 0.04 | 0.03 | 76 | 1016.5 |
| 20260830105413 | 65 | 202 | 0.0 | 0.9 | 0.03 | 0.04 | 0.03 | 71 | 1016.5 |
| 20260830104513 | 65 | 0 | 0.0 | 0.0 | 0.00 | 0.01 | 0.00 | 65 | 1016.5 |
| 20260830103634 | 65 | 0 | 0.0 | 0.0 | 0.00 | 0.01 | 0.00 | 64 | 1016.5 |
| 20260830102734 | 65 | 0 | 0.0 | 0.0 | 0.00 | 0.01 | 0.00 | 65 | 1016.5 |
| 20260830101813 | 65 | 0 | 0.0 | 0.0 | 0.00 | 0.01 | 0.00 | 64 | 1016.5 |
| 20260830100913 | 65 | 0 | 0.0 | 0.0 | 0.00 | 0.01 | 0.00 | 64 | 1016.5 |
| 20260830100034 | 65 | 182 | 0.0 | 4.3 | 0.00 | 0.01 | 0.00 | 65 | 1016.5 |
| 20260830095413 | 64 | 176 | 0.0 | 4.3 | 0.00 | 0.01 | 0.00 | 66 | 1016.5 |
| 20260830094513 | 65 | 173 | 0.0 | 1.7 | 0.00 | 0.01 | 0.00 | 66 | 1016.5 |
| 20260830093613 | 65 | 0 | 0.0 | 0.0 | 0.00 | 0.01 | 0.00 | 65 | 1016.5 |
| 20260830092713 | 66 | 0 | 0.0 | 0.9 | 0.00 | 0.01 | 0.00 | 64 | 1016.5 |
| 20260830091813 | 66 | 0 | 0.0 | 0.9 | 0.00 | 0.01 | 0.00 | 63 | 1016.5 |
| 20260830090913 | 66 | 0 | 0.0 | 0.0 | 0.00 | 0.01 | 0.00 | 63 | 1016.5 |
| 20260830090013 | 66 | 0 | 0.0 | 0.0 | 0.00 | 0.01 | 0.00 | 63 | 1016.5 |
| 20260830085413 | 66 | 0 | 0.0 | 0.9 | 0.00 | 0.01 | 0.00 | 63 | 1016.5 |
| 20260830084513 | 65 | 186 | 0.0 | 0.9 | 0.00 | 0.01 | 0.00 | 65 | 1016.5 |
| 20260830083634 | 65 | 186 | 0.0 | 4.3 | 0.00 | 0.01 | 0.00 | 67 | 1016.5 |
| 20260830082713 | 64 | 184 | 0.0 | 1.7 | 0.00 | 0.01 | 0.00 | 69 | 1016.5 |
| 20260830081813 | 65 | 184 | 0.0 | 1.7 | 0.00 | 0.01 | 0.00 | 69 | 1016.5 |
| 20260830080913 | 65 | 0 | 0.0 | 0.0 | 0.00 | 0.01 | 0.00 | 68 | 1016.5 |
| 20260830080013 | 65 | 0 | 0.0 | 0.0 | 0.00 | 0.01 | 0.00 | 68 | 1016.5 |
| 20260830075413 | 65 | 0 | 0.0 | 0.0 | 0.00 | 0.01 | 0.00 | 67 | 1016.5 |
| 20260830074513 | 66 | 0 | 0.0 | 0.0 | 0.00 | 0.01 | 0.00 | 66 | 1016.5 |
| 20260830073613 | 66 | 0 | 0.0 | 0.9 | 0.00 | 0.01 | 0.00 | 66 | 1016.5 |
| 20260830072734 | 66 | 0 | 0.0 | 0.9 | 0.00 | 0.01 | 0.00 | 67 | 1016.5 |
| 20260830071813 | 66 | 0 | 0.0 | 0.9 | 0.00 | 0.01 | 0.00 | 67 | 1016.5 |
| 20260830070913 | 67 | 0 | 0.0 | 0.0 | 0.00 | 0.01 | 0.00 | 65 | 1016.5 |
| 20260830070013 | 67 | 0 | 0.0 | 0.0 | 0.00 | 0.01 | 0.00 | 64 | 1016.5 |
| 20260830065413 | 68 | 184 | 0.0 | 3.5 | 0.00 | 0.01 | 0.00 | 62 | 1016.5 |
| 20260830064513 | 68 | 0 | 0.0 | 0.9 | 0.00 | 0.01 | 0.00 | 62 | 1016.5 |
| 20260830063613 | 67 | 0 | 0.0 | 0.9 | 0.00 | 0.01 | 0.00 | 63 | 1016.5 |
| 20260830062713 | 67 | 0 | 0.0 | 0.0 | 0.00 | 0.01 | 0.00 | 63 | 1016.5 |
| 20260830061813 | 67 | 0 | 0.0 | 0.0 | 0.00 | 0.01 | 0.00 | 62 | 1016.5 |
| 20260830060913 | 67 | 0 | 0.0 | 0.0 | 0.00 | 0.01 | 0.00 | 63 | 1016.5 |
| 20260830060013 | 67 | 186 | 0.0 | 3.5 | 0.00 | 0.01 | 0.00 | 65 | 1016.5 |
| 20260830055413 | 66 | 186 | 0.0 | 3.5 | 0.00 | 0.01 | 0.01 | 66 | 1016.5 |
| 20260830054513 | 66 | 186 | 0.0 | 4.3 | 0.00 | 0.01 | 0.01 | 69 | 1016.5 |
| 20260830053634 | 66 | 185 | 0.9 | 7.8 | 0.00 | 0.01 | 0.01 | 70 | 1016.5 |
| 20260830052713 | 66 | 170 | 0.0 | 1.7 | 0.00 | 0.01 | 0.01 | 73 | 1016.5 |
| 20260830051813 | 67 | 0 | 0.0 | 0.0 | 0.00 | 0.01 | 0.01 | 72 | 1016.5 |
| 20260830050913 | 67 | 0 | 0.0 | 0.0 | 0.00 | 0.01 | 0.01 | 71 | 1016.5 |
| 20260830050013 | 68 | 0 | 0.0 | 0.0 | 0.00 | 0.01 | 0.01 | 70 | 1016.5 |
| 20260830045413 | 68 | 0 | 0.0 | 0.0 | 0.00 | 0.01 | 0.01 | 67 | 1016.5 |
| 20260830044513 | 68 | 0 | 0.0 | 0.0 | 0.00 | 0.01 | 0.01 | 67 | 1016.5 |
| 20260830043613 | 69 | 0 | 0.0 | 0.0 | 0.00 | 0.01 | 0.01 | 67 | 1016.5 |
| 20260830042734 | 69 | 78 | 0.0 | 0.9 | 0.00 | 0.01 | 0.01 | 63 | 1016.5 |
| 20260830041813 | 68 | 0 | 0.0 | 0.9 | 0.00 | 0.01 | 0.01 | 66 | 1016.5 |
| 20260830040934 | 68 | 0 | 0.0 | 0.9 | 0.00 | 0.01 | 0.01 | 66 | 1016.5 |
| 20260830040013 | 67 | 0 | 0.0 | 0.0 | 0.00 | 0.01 | 0.01 | 66 | 1016.5 |
| 20260830035413 | 67 | 0 | 0.0 | 0.0 | 0.00 | 0.01 | 0.01 | 66 | 1016.5 |
| 20260830034513 | 67 | 0 | 0.0 | 0.0 | 0.00 | 0.01 | 0.01 | 67 | 1016.5 |